Location: Borowce
(50.8255°N, 19.6209°E)
Time: 07:27:17
(UTC+00:00)

Cosmos 2341 Rocket - Pass Details

Date: 19 May 2025
Orbit: 966 x 1004 km, 82.9° (Epoch: 16 June)

Event Time Altitude Azimuth Distance (km) Brightness Sun altitude
Rises 19:51:52 0° 350° (N) 3,698 8.2 -10.4°
Reaches altitude 10° 19:54:24 10° 352° (N) 2,741 7.4 -10.6°
Maximum altitude 20:00:42 80° 80° (E) 993 4.0 -11.2°
Enters shadow 20:06:25 13° 167° (SSE) 2,522 5.6 -11.8°
